Location: Trebic
(49.2170°N, 15.8830°E)
Time: 12:58:42
(UTC+02:00)

deb Explorer IX - All Passes

Search period start: 17 October 2019 00:00
Search period end: 27 October 2019 00:00
Orbit: 544 x 1107 km, 38.8° (Epoch: 17 October)

Date Brightness Start Highest point End Pass type
(mag) Time Alt. Az. Time Alt. Az. Time Alt. Az.
17 Oct - 14:34:26 10° S 14:37:47 16° SSE 14:41:23 10° ESE daylight
17 Oct - 16:18:28 10° SW 16:23:47 30° SSE 16:29:40 10° ESE daylight
17 Oct - 18:04:26 10° WSW 18:10:17 34° S 18:16:36 10° SE daylight
17 Oct - 19:51:30 10° WSW 19:56:43 23° SSW 20:02:08 10° SSE visible
18 Oct - 14:12:39 10° S 14:15:50 15° SSE 14:19:15 10° ESE daylight
18 Oct - 15:56:38 10° SW 16:01:48 30° SSE 16:07:34 10° ESE daylight
18 Oct - 17:42:35 10° WSW 17:48:16 33° S 17:54:30 10° SE daylight
18 Oct - 19:29:37 10° WSW 19:34:42 22° SSW 19:40:01 10° SSE visible
19 Oct - 13:50:54 10° S 13:53:54 15° SSE 13:57:07 10° ESE daylight
19 Oct - 15:34:50 10° SW 15:39:50 29° SSE 15:45:27 10° ESE daylight
19 Oct - 17:20:44 10° WSW 17:26:16 32° S 17:32:22 10° SE daylight
19 Oct - 19:07:45 10° WSW 19:12:40 21° SSW 19:17:52 10° SSE visible
20 Oct - 13:29:10 10° S 13:31:58 14° SSE 13:34:58 10° ESE daylight
20 Oct - 15:13:03 10° SW 15:17:52 28° SSE 15:23:20 10° ESE daylight
20 Oct - 16:58:55 10° WSW 17:04:16 31° S 17:10:15 10° SE daylight
20 Oct - 18:45:55 10° WSW 18:50:40 21° SSW 18:55:42 10° SSE visible
21 Oct - 13:07:27 10° S 13:10:03 14° SSE 13:12:50 10° ESE daylight
21 Oct - 14:51:17 10° SW 14:55:56 28° SSE 15:01:12 10° ESE daylight
21 Oct - 16:37:07 10° WSW 16:42:18 31° S 16:48:06 10° SE daylight
21 Oct - 18:24:07 10° WSW 18:28:40 20° SSW 18:33:31 10° SSE visible
22 Oct - 12:45:45 10° S 12:48:09 13° SSE 12:50:43 10° ESE daylight
22 Oct - 14:29:31 10° SW 14:34:01 27° SSE 14:39:06 10° ESE daylight
22 Oct - 16:15:20 10° WSW 16:20:20 30° S 16:25:58 10° SE daylight
22 Oct - 18:02:20 10° WSW 18:06:40 19° SSW 18:11:19 10° SSE daylight
23 Oct - 12:24:04 10° S 12:26:15 13° SSE 12:28:35 10° ESE daylight
23 Oct - 14:07:46 10° SW 14:12:06 26° SSE 14:16:59 10° ESE daylight
23 Oct - 15:53:34 10° WSW 15:58:23 29° S 16:03:49 10° SE daylight
23 Oct - 17:40:35 10° WSW 17:44:41 18° SSW 17:49:07 10° SSE daylight
24 Oct - 12:02:23 10° S 12:04:22 12° SSE 12:06:28 10° SE daylight
24 Oct - 13:46:03 10° SW 13:50:12 25° SSE 13:54:54 10° ESE daylight
24 Oct - 15:31:50 10° WSW 15:36:27 28° S 15:41:41 10° SE daylight
24 Oct - 17:18:52 10° WSW 17:22:43 18° SSW 17:26:53 10° SSE daylight
25 Oct - 11:40:44 10° S 11:42:31 12° SSE 11:44:22 10° SE daylight
25 Oct - 13:24:19 10° SW 13:28:19 25° SSE 13:32:48 10° ESE daylight
25 Oct - 15:10:06 10° WSW 15:14:31 27° S 15:19:34 10° SE daylight
25 Oct - 16:57:10 10° WSW 17:00:46 17° SSW 17:04:39 10° SSE daylight
26 Oct - 11:19:04 10° S 11:20:39 12° SSE 11:22:16 10° SE daylight
26 Oct - 13:02:36 10° SW 13:06:26 24° S 13:10:44 10° ESE daylight
26 Oct - 14:48:22 10° WSW 14:52:37 26° S 14:57:26 10° SE daylight
26 Oct - 16:35:31 10° WSW 16:38:50 16° SSW 16:42:24 10° S daylight
